Temperature
24 21 21 23 23 23 22 21 20 20 20 18 16 16 16 17 17 16 16 16 16 15 15 15 15 14 14 14 14 13 13 13 13 14 14 14 14 15 15 15 15 16 16 16
21 22 24 24 23 21 21 19 19 20 21 18 16 16 16 17 17 16 16 16 16 15 15 15 14 14 14 13 13 13 13 13 13 13 13 13 14 14 14 15 15 15 15 16
22 23 24 22 21 21 20 20 20 20 20 18 16 16 16 16 16 16 16 16 15 15 15 14 14 14 14 13 13 13 13 13 13 13 13 13 14 14 14 14 15 15 15 15
22 23 22 21 21 21 20 21 21 20 18 17 17 15 15 15 15 15 15 15 15 15 15 14 14 14 13 13 13 13 12 12 12 13 13 13 13 13 13 14 14 14 15 15
21 21 21 21 21 21 20 21 21 20 19 17 17 15 14 15 15 15 15 15 15 15 15 14 14 14 13 13 13 12 12 12 12 12 12 12 13 13 13 13 14 14 14 15
21 22 21 21 21 21 21 19 18 16 15 16 17 15 14 13 15 15 15 15 15 15 15 14 14 14 13 13 13 12 12 12 12 12 12 12 12 12 13 13 13 14 14 14
21 21 21 22 20 20 19 16 15 16 15 16 17 16 14 15 15 15 15 15 15 15 15 14 14 14 13 13 13 12 12 12 12 12 12 12 12 12 12 12 13 13 13 14
19 19 20 21 20 19 19 16 16 16 16 15 16 16 14 16 16 16 16 16 15 15 15 14 14 14 13 13 13 12 12 12 12 12 12 12 12 12 12 12 12 13 13 13
18 18 20 21 21 20 19 17 16 15 16 16 15 15 15 16 15 16 16 16 15 15 15 15 14 14 13 13 13 12 12 12 12 11 12 12 12 12 12 12 12 12 13 13
18 18 20 21 20 20 19 18 15 15 16 15 16 16 14 14 14 15 15 16 16 15 15 15 14 14 13 13 13 12 12 12 11 11 11 11 11 12 12 12 12 12 12 13
19 18 19 19 19 19 19 18 15 13 14 15 15 14 15 14 14 14 15 16 16 16 15 15 14 14 14 13 13 12 12 12 12 11 11 11 11 11 11 12 12 12 12 12
18 15 16 18 19 19 19 18 15 15 15 14 13 14 16 15 15 16 16 16 16 16 15 15 15 14 14 13 13 13 12 12 12 11 11 11 11 11 11 11 11 12 12 12
18 16 16 18 17 18 19 19 17 14 13 14 14 15 15 15 16 16 16 16 16 16 16 15 15 14 14 14 13 13 12 12 12 11 11 11 11 11 11 11 11 11 11 12
18 16 17 18 17 18 18 18 18 15 14 14 15 16 16 15 14 16 16 17 16 16 16 15 15 15 14 14 13 13 13 12 12 12 11 11 11 11 11 11 11 11 11 11
16 18 19 18 19 19 19 19 18 17 15 15 16 16 16 15 15 16 17 17 16 16 16 15 15 15 14 14 14 13 13 12 12 12 11 11 11 11 11 11 11 11 11 11
17 19 19 19 20 20 20 19 18 17 17 16 17 17 16 17 17 17 17 17 17 16 16 16 15 15 15 14 14 13 13 12 12 12 11 11 11 11 10 10 10 10 10 10
17 18 18 17 19 20 19 19 18 18 18 17 17 16 16 15 16 17 17 17 17 16 16 16 15 15 15 14 14 13 13 12 12 12 11 11 11 10 10 10 10 10 10 10
17 16 15 16 18 20 19 20 20 19 19 18 18 17 16 17 18 18 18 18 17 17 16 16 15 15 15 14 14 13 13 13 12 12 11 11 11 10 10 10 10 10 10 10
16 17 15 15 17 18 20 21 21 20 19 19 18 17 18 19 18 17 18 18 17 17 16 16 15 15 15 14 14 14 13 13 12 12 11 11 10 10 10 10 10 10 10 10
16 14 15 16 18 19 19 21 21 20 19 20 19 18 18 17 14 15 19 18 17 17 16 16 16 15 15 14 14 14 13 13 12 11 11 11 11 10 10 10 10 10 10 10
17 16 15 16 17 17 19 21 21 19 19 21 21 20 19 17 17 20 19 18 18 17 17 16 16 15 15 15 14 14 13 13 12 11 11 11 11 10 10 10 10 10 10 10
16 15 15 14 17 18 20 20 18 19 22 22 22 22 21 21 20 19 19 18 18 17 17 16 16 15 15 15 14 14 13 13 12 12 11 11 11 11 11 10 10 10 10 10
16 16 15 15 17 20 22 22 23 23 22 22 22 22 21 21 20 19 19 18 18 17 17 16 16 16 15 15 15 14 14 13 13 12 12 11 11 11 11 11 10 10 10 10
17 17 17 18 19 21 22 22 23 23 22 22 22 22 21 21 20 19 19 18 18 17 17 17 16 16 16 15 15 15 14 14 13 12 12 12 12 11 11 11 11 11 10 10
15 16 17 18 18 20 22 22 22 23 22 22 22 22 21 21 20 20 19 19 18 18 17 17 17 16 16 16 15 15 14 14 13 13 13 12 12 12 11 11 11 11 11 11
12 12 14 15 16 16 19 19 20 21 21 21 21 21 21 21 21 20 20 19 19 18 18 17 17 17 17 16 16 15 15 14 14 13 13 13 12 12 12 11 11 11 11 11
Wind_Speed
5 7 4 1 3 4 3 4 4 3 4 5 7 7 5 3 5 5 4 4 4 4 4 5 6 6 6 7 7 7 7 8 6 5 4 4 5 5 5 4 6 7 7 7
7 3 1 2 6 8 9 8 4 1 3 5 6 4 3 3 4 4 4 3 2 4 5 6 6 6 6 7 7 7 8 8 7 5 5 4 5 5 5 4 4 6 6 6
7 2 3 7 8 8 7 5 4 3 1 4 7 2 2 1 2 3 3 2 1 3 3 5 6 6 6 7 7 8 8 8 8 7 5 5 4 4 3 4 4 4 6 6
6 3 7 7 5 4 1 1 2 2 2 2 6 4 5 4 1 1 1 0 2 3 3 4 5 6 7 7 7 7 7 7 8 7 6 6 4 4 5 4 5 6 5 5
3 3 6 5 1 1 4 3 1 1 2 1 0 4 4 3 3 2 2 1 2 3 3 4 5 5 6 6 7 7 7 7 8 7 7 6 5 5 5 5 6 6 5 5
4 3 4 1 2 1 1 5 7 6 5 2 4 5 5 4 5 3 2 2 3 3 3 4 5 5 6 6 6 7 7 8 8 8 8 7 7 7 7 7 6 5 5 5
4 4 3 3 4 6 7 6 5 5 4 5 1 3 5 5 5 5 4 4 4 3 3 4 6 6 7 7 7 7 7 8 8 9 8 8 7 7 7 6 6 5 4 4
5 2 3 2 2 1 1 7 6 3 3 5 3 2 5 4 5 4 4 4 3 3 4 4 5 5 6 6 6 6 7 7 8 8 9 8 7 5 5 5 5 4 4 4
7 4 3 1 1 2 2 1 6 6 1 2 3 2 3 2 3 3 3 3 3 4 4 4 5 5 5 5 6 6 6 6 8 8 8 8 8 7 6 6 5 4 4 4
7 4 4 2 3 4 1 3 5 3 1 3 5 4 5 7 6 5 4 4 4 4 4 4 4 5 4 4 4 4 4 5 6 7 7 6 8 7 7 6 7 7 7 6
5 6 1 2 0 1 3 3 4 3 4 3 4 7 6 9 8 7 6 6 6 6 5 4 5 5 4 4 4 3 5 5 5 7 6 7 8 8 8 7 7 7 7 8
3 6 3 2 4 1 3 4 5 3 1 2 3 7 4 8 8 7 7 7 5 5 5 5 4 4 3 4 4 3 3 4 4 5 6 7 7 7 8 8 8 8 7 7
4 6 4 4 6 3 0 3 5 5 3 2 2 7 2 5 6 7 7 7 5 5 5 4 4 4 4 4 3 3 2 3 3 4 5 7 7 7 7 7 7 8 7 7
4 4 6 6 7 6 4 5 5 5 3 3 6 7 5 7 8 8 8 7 5 5 5 4 4 4 4 4 3 2 2 2 2 3 5 6 6 6 6 6 7 7 7 7
5 3 4 7 7 6 6 7 8 7 8 7 7 7 9 11 12 10 8 7 5 5 5 5 4 4 4 3 3 2 1 1 2 3 4 5 5 6 6 6 6 7 7 7
3 2 1 3 6 6 5 7 8 8 7 8 7 8 7 7 8 8 8 7 7 6 6 5 4 4 3 4 3 1 1 0 1 2 3 4 5 6 6 6 6 6 6 6
2 2 2 4 3 1 6 8 8 7 7 8 9 8 5 6 10 10 9 8 8 7 6 5 4 4 4 5 4 4 3 1 2 2 2 3 4 5 6 6 6 6 6 6
5 4 3 1 3 2 8 5 5 6 7 8 7 7 11 11 11 10 9 9 8 8 7 5 4 3 3 3 3 4 3 3 2 1 2 3 3 4 5 6 6 6 5 5
4 6 4 3 2 6 7 4 1 1 6 6 8 8 9 6 4 4 8 9 9 9 7 6 5 4 3 3 5 6 4 3 2 1 1 1 2 3 5 6 6 4 4 5
6 6 5 3 1 3 6 3 2 2 5 6 6 9 9 9 4 7 8 8 8 8 6 5 4 3 4 3 6 7 5 3 2 2 2 2 1 2 3 5 4 4 3 4
2 3 3 3 3 7 7 1 3 1 6 5 5 8 11 11 10 6 6 8 9 8 7 6 5 4 4 5 7 7 5 5 5 4 2 1 1 2 2 3 4 4 4 4
8 5 4 4 2 6 5 5 5 9 5 4 4 7 10 10 7 6 8 9 9 8 8 7 5 5 5 5 8 7 7 6 5 4 3 2 2 1 1 3 4 4 4 5
7 8 7 8 7 7 6 9 7 5 5 5 4 6 9 8 8 9 9 9 9 9 8 7 6 6 5 6 8 8 7 7 5 4 3 3 2 1 0 1 2 3 4 3
3 2 4 3 5 5 5 6 6 5 6 6 5 6 8 9 10 11 10 9 9 9 8 7 7 7 6 7 8 9 8 7 6 5 4 4 3 2 1 0 1 1 2 2
6 4 3 3 6 8 8 7 7 6 6 6 5 5 8 10 10 11 10 10 10 9 8 7 8 8 8 8 8 8 8 8 7 6 5 5 5 4 3 1 1 1 2 2
6 4 2 3 6 4 6 11 11 8 7 7 5 4 4 8 10 11 11 10 10 10 9 8 9 9 8 8 8 9 8 8 7 6 5 5 5 4 4 3 2 3 3 3
Wind_Direction
44 66 77 95 135 134 106 105 115 134 138 119 141 154 173 148 107 97 78 56 39 9 341 352 352 353 353 349 346 339 335 329 333 328 319 308 302 297 294 282 279 274 261 251
51 60 312 45 66 77 79 89 87 109 153 121 136 148 177 159 139 137 120 92 36 353 348 347 350 352 348 338 335 335 336 330 329 319 300 275 275 277 274 281 291 284 273 258
129 207 45 76 60 73 73 111 157 202 93 94 115 98 195 191 124 119 124 127 14 358 341 333 338 339 337 334 332 334 328 328 326 325 319 314 307 302 308 307 299 289 282 265
100 44 73 77 62 84 133 191 167 155 114 228 160 181 226 200 173 168 174 29 342 327 319 321 327 331 329 323 324 324 323 326 327 329 331 325 320 303 286 287 287 292 290 274
87 73 72 70 49 122 222 258 288 181 158 304 151 144 250 191 212 238 228 236 296 304 308 314 315 314 313 320 326 322 325 328 328 330 331 325 317 299 294 295 298 300 297 287
79 68 94 137 306 299 10 23 24 46 70 327 246 160 236 223 207 210 227 250 283 296 306 312 314 312 314 321 330 330 334 328 328 331 330 326 319 316 316 314 313 310 302 295
57 18 14 34 20 10 56 65 31 10 8 263 248 134 235 221 193 187 199 235 270 280 294 306 317 319 321 323 326 329 332 326 327 333 332 326 320 317 312 309 307 309 308 303
131 277 313 21 127 231 29 129 141 186 242 286 352 225 252 210 192 184 196 221 260 287 290 299 302 308 317 318 320 325 330 328 331 337 335 333 332 329 324 319 315 311 303 297
152 214 279 280 357 113 60 111 172 146 269 316 298 295 306 209 213 213 221 237 265 275 291 292 298 305 313 317 316 317 325 331 334 336 336 341 346 348 344 341 340 335 330 329
133 159 249 236 12 350 129 132 73 85 71 316 297 251 233 212 220 219 222 238 262 269 288 292 294 293 299 307 313 323 328 330 330 338 345 353 350 354 354 359 1 358 357 359
114 126 135 46 316 256 31 53 83 112 149 159 285 274 221 196 198 200 215 229 246 252 260 268 277 286 296 312 320 326 332 340 343 345 349 356 357 1 7 10 5 3 8 9
88 110 96 308 306 247 147 145 132 133 270 178 209 270 237 185 190 194 211 232 246 245 240 248 265 287 302 304 307 317 327 341 342 349 359 1 0 6 11 10 6 6 11 11
93 106 90 344 331 334 254 195 150 134 124 161 219 272 252 203 204 209 214 231 243 245 240 251 271 282 283 282 288 309 321 334 349 6 10 8 7 9 9 6 5 8 12 13
110 107 156 188 214 202 201 211 178 130 153 246 236 250 229 219 213 221 224 229 232 238 233 239 259 270 271 267 269 292 306 317 2 15 17 12 3 3 2 1 2 4 6 11
107 111 205 222 214 184 197 201 195 188 194 205 239 238 238 212 206 212 218 221 219 223 223 224 238 253 261 255 259 268 269 312 11 20 16 4 358 0 2 2 360 360 3 9
98 134 327 288 239 209 237 235 215 218 216 223 240 261 244 196 189 205 211 208 212 214 215 217 232 240 243 237 231 212 192 238 57 33 11 2 5 3 360 355 354 357 358 358
91 118 71 309 323 94 279 248 214 217 212 197 219 236 184 176 198 205 205 205 206 205 206 208 224 241 241 227 209 185 181 146 87 41 8 6 8 4 352 348 354 355 354 359
123 103 108 9 36 250 260 265 200 213 240 217 218 211 184 196 204 206 197 193 199 196 198 208 221 239 239 212 182 159 139 122 108 73 9 359 5 359 348 350 350 346 347 353
124 124 95 83 340 292 295 285 181 225 286 238 216 213 202 190 161 249 220 194 190 193 197 205 208 205 198 187 165 145 137 130 118 115 318 319 348 356 352 349 342 341 350 356
69 88 104 100 56 272 267 284 109 83 294 278 203 199 186 145 173 249 225 194 186 185 187 191 186 182 186 182 153 147 156 159 184 213 229 252 294 348 349 343 338 341 351 353
58 59 114 165 235 268 259 217 75 62 260 273 208 193 177 185 206 221 189 181 182 184 190 182 173 186 202 175 153 156 174 198 216 210 205 228 264 288 335 349 349 357 10 15
169 162 185 153 197 272 232 153 186 223 242 257 225 199 193 209 213 194 180 180 182 188 194 185 183 205 210 177 159 169 197 215 215 203 202 222 256 292 25 21 11 15 25 31
186 186 181 183 214 243 222 211 231 201 223 246 227 220 195 192 190 187 188 187 191 194 199 196 193 208 216 192 175 183 209 210 206 203 212 219 224 258 30 49 26 20 25 31
311 165 145 228 273 281 273 263 277 248 247 257 238 213 186 191 193 192 194 196 198 201 201 201 196 207 219 210 199 200 202 198 196 204 213 211 207 218 244 5 40 46 25 20
336 5 10 293 311 338 2 351 317 296 292 288 266 219 200 194 197 197 200 203 203 204 203 198 199 208 218 212 210 210 201 191 195 208 213 209 207 204 207 215 242 240 249 241
352 357 333 274 306 301 327 349 355 349 329 312 294 272 232 202 204 202 206 208 205 206 202 201 206 211 217 209 212 212 204 192 189 201 209 209 208 207 204 206 257 288 260 278
Height
1535 1542 1549 1545 1543 1545 1547 1553 1558 1557 1554 1559 1564 1567 1566 1565 1565 1565 1565 1563 1562 1560 1558 1555 1552 1549 1545 1541 1538 1534 1530 1527 1524 1521 1519 1517 1515 1514 1514 1513 1513 1513 1513 1514
1544 1548 1543 1541 1542 1545 1549 1557 1560 1556 1553 1559 1567 1569 1567 1566 1566 1565 1564 1563 1561 1559 1557 1554 1551 1547 1543 1539 1535 1531 1528 1524 1521 1518 1516 1514 1512 1510 1509 1509 1509 1508 1508 1509
1546 1546 1541 1543 1546 1549 1554 1557 1558 1559 1556 1559 1568 1574 1570 1568 1566 1566 1564 1563 1561 1558 1556 1553 1549 1546 1542 1538 1534 1530 1526 1523 1519 1516 1513 1511 1509 1507 1506 1505 1504 1504 1504 1504
1544 1543 1543 1547 1550 1550 1557 1550 1551 1554 1563 1570 1567 1583 1574 1569 1567 1566 1564 1562 1560 1558 1555 1552 1548 1545 1541 1537 1533 1529 1525 1521 1518 1514 1511 1508 1505 1503 1502 1501 1499 1499 1499 1499
1547 1546 1547 1551 1550 1549 1551 1548 1550 1553 1560 1567 1567 1578 1577 1569 1568 1566 1563 1561 1559 1557 1554 1551 1548 1544 1540 1537 1532 1528 1524 1520 1517 1513 1509 1506 1503 1501 1499 1497 1496 1495 1494 1494
1546 1545 1547 1549 1547 1547 1547 1551 1555 1561 1568 1577 1567 1575 1577 1571 1565 1563 1562 1560 1558 1556 1553 1550 1547 1544 1540 1536 1532 1528 1524 1520 1516 1512 1508 1505 1502 1499 1496 1494 1492 1491 1490 1490
1553 1551 1548 1548 1550 1550 1553 1567 1580 1581 1587 1581 1565 1570 1572 1563 1560 1560 1560 1559 1557 1555 1552 1549 1546 1543 1539 1535 1532 1528 1524 1520 1516 1512 1508 1504 1500 1497 1494 1492 1490 1488 1487 1487
1563 1565 1553 1550 1552 1555 1555 1565 1582 1588 1588 1581 1568 1571 1568 1559 1559 1559 1558 1557 1556 1554 1551 1548 1546 1542 1539 1535 1532 1528 1524 1520 1516 1512 1508 1503 1500 1496 1493 1491 1488 1487 1485 1484
1563 1564 1552 1550 1550 1552 1556 1562 1564 1576 1576 1580 1576 1570 1564 1560 1559 1558 1557 1556 1554 1552 1550 1548 1545 1542 1539 1535 1532 1528 1524 1520 1516 1512 1508 1504 1500 1496 1493 1490 1488 1486 1484 1482
1551 1562 1555 1551 1552 1551 1553 1557 1568 1575 1582 1587 1577 1572 1572 1562 1559 1557 1556 1554 1553 1551 1549 1547 1544 1541 1538 1535 1532 1528 1525 1521 1517 1513 1509 1505 1501 1497 1494 1491 1488 1486 1483 1481
1545 1559 1559 1556 1557 1558 1557 1559 1567 1576 1579 1587 1589 1578 1556 1556 1555 1555 1554 1553 1551 1550 1548 1546 1544 1541 1538 1535 1532 1529 1525 1521 1517 1514 1510 1506 1502 1499 1495 1492 1489 1486 1483 1481
1546 1560 1568 1561 1555 1552 1553 1557 1565 1576 1577 1580 1586 1577 1550 1550 1551 1552 1552 1551 1549 1548 1547 1545 1543 1541 1538 1535 1532 1529 1526 1522 1518 1515 1511 1507 1503 1500 1496 1493 1490 1487 1484 1482
1546 1559 1573 1570 1567 1557 1555 1554 1558 1568 1575 1578 1583 1572 1550 1550 1550 1550 1549 1549 1548 1547 1545 1544 1542 1540 1537 1535 1532 1529 1526 1523 1519 1516 1512 1508 1505 1501 1497 1494 1491 1488 1485 1483
1545 1555 1565 1568 1566 1556 1556 1554 1554 1564 1574 1574 1569 1560 1551 1549 1548 1548 1547 1547 1546 1545 1544 1543 1541 1539 1537 1534 1532 1529 1526 1523 1520 1516 1513 1509 1505 1502 1499 1495 1492 1489 1486 1484
1544 1553 1551 1551 1547 1547 1549 1550 1552 1557 1560 1565 1558 1552 1546 1543 1543 1544 1544 1544 1544 1544 1543 1541 1540 1538 1536 1534 1532 1529 1527 1524 1521 1517 1514 1510 1507 1503 1500 1496 1493 1490 1487 1484
1545 1549 1549 1549 1545 1545 1547 1546 1548 1550 1550 1551 1548 1546 1536 1537 1540 1541 1542 1542 1542 1541 1541 1540 1538 1537 1535 1533 1531 1529 1527 1524 1521 1518 1514 1511 1508 1505 1501 1498 1494 1491 1488 1486
1547 1550 1555 1559 1549 1549 1554 1543 1543 1543 1540 1542 1545 1541 1535 1537 1538 1538 1539 1539 1539 1539 1539 1538 1537 1536 1534 1532 1531 1529 1527 1524 1522 1518 1515 1512 1509 1506 1502 1499 1496 1493 1490 1487
1546 1552 1560 1561 1557 1561 1547 1533 1532 1535 1533 1533 1532 1531 1531 1532 1533 1534 1535 1536 1537 1537 1537 1536 1535 1534 1533 1532 1530 1528 1527 1524 1522 1519 1516 1513 1510 1507 1504 1501 1497 1494 1491 1489
1541 1549 1559 1566 1564 1558 1541 1532 1531 1534 1534 1528 1528 1528 1529 1531 1533 1533 1533 1533 1534 1535 1535 1535 1534 1533 1532 1531 1529 1528 1526 1524 1522 1519 1517 1514 1511 1508 1505 1502 1499 1496 1493 1490
1544 1548 1559 1564 1561 1560 1544 1531 1530 1534 1536 1525 1524 1525 1527 1530 1537 1531 1529 1531 1532 1533 1533 1533 1533 1532 1531 1530 1529 1528 1526 1524 1522 1519 1517 1515 1512 1509 1506 1503 1500 1498 1495 1492
1550 1553 1559 1562 1563 1554 1535 1530 1532 1544 1539 1524 1523 1522 1524 1525 1526 1526 1527 1528 1530 1531 1531 1531 1531 1531 1530 1529 1528 1527 1525 1524 1522 1520 1518 1516 1513 1510 1508 1505 1502 1499 1497 1494
1550 1556 1559 1564 1562 1554 1529 1530 1533 1531 1523 1522 1521 1521 1521 1521 1522 1524 1525 1526 1527 1529 1529 1529 1529 1529 1529 1528 1527 1526 1525 1523 1521 1520 1518 1516 1514 1511 1509 1506 1503 1501 1498 1496
1541 1540 1543 1546 1544 1529 1525 1524 1524 1523 1522 1521 1520 1520 1519 1519 1520 1521 1522 1524 1525 1526 1527 1527 1527 1527 1527 1526 1526 1524 1524 1522 1521 1520 1518 1516 1514 1512 1510 1507 1505 1502 1500 1498
1533 1531 1533 1534 1529 1525 1524 1523 1522 1522 1521 1520 1519 1518 1518 1517 1518 1519 1520 1521 1522 1523 1524 1525 1525 1525 1525 1524 1524 1523 1522 1521 1520 1519 1518 1516 1515 1513 1511 1509 1506 1504 1502 1499
1538 1533 1533 1532 1528 1524 1523 1523 1522 1521 1520 1519 1517 1517 1516 1516 1516 1517 1517 1518 1519 1520 1521 1522 1522 1522 1522 1522 1521 1521 1520 1519 1519 1518 1517 1515 1514 1513 1511 1509 1507 1505 1503 1501
1542 1542 1540 1537 1532 1531 1529 1526 1522 1520 1518 1517 1516 1515 1515 1514 1514 1514 1514 1515 1516 1517 1518 1518 1519 1519 1519 1519 1519 1519 1518 1518 1517 1516 1515 1514 1513 1512 1511 1510 1508 1506 1504 1502